EUTELSAT 7B 1 39163U 13022A 21060.96531578 .00000040 00000-0 00000+0 0 9996 2 39163 0.0724 338.4182 0005923 17.8998 158.1525 1.00273141 28586 BREEZE-M R/B 1 39164U 13022B 21060.01061187 .00000206 00000-0 00000-0 0 9992 2 39164 18.2799 98.2517 5426432 348.0690 3.0762 2.02196303 57588 BREEZE-M DEB [TANK] 1 39165U 13022C 21060.11214653 .00001590 00000-0 25099-3 0 9997 2 39165 49.4404 122.4693 5680432 90.1248 331.3956 4.53698223128126